{"data":{"norad_id":59947,"epoch":"2026-09-21T17:52:13.875456Z","epoch_age_seconds":70670,"freshness":"FRESH","line1":"1 59947U 24107C   26264.74460504 -.00000314  00000+0  22726-5 0  9990","line2":"2 59947  53.1597   4.4034 0001371  79.3100 280.8072 15.69699381132946","mean_motion":15.69699381,"eccentricity":0.0001371,"inclination_deg":53.1597,"raan_deg":4.4034,"arg_perigee_deg":79.31,"mean_anomaly_deg":280.8072,"bstar":2.2726e-6,"rev_number":13294,"period_min":91.73731081442,"perigee_km":358.83337281802,"apogee_km":360.68090339069,"semimajor_km":6737.8941381044,"source":"CELESTRAK","updated_at":"2026-09-22T09:00:49.115847Z"}}